Date String (YYYY-MM-DD hh:mm:ss) UTC,Instrument flags,Ambient pressure (hPa),Sample flow (lpm),Bypass flow (lpm),Sample temperature (°C),Ambient temperature (°C),ASC tube jacket temperature (°C),LED temperature (°C),Box temperature (°C),Sample RH (%),Span deviation,Mass concentration (μg/m³),Mass concentration (μg/m³),Mass concentration (μg/m³)
DateTimeUTC,F1_M11,P_M11,Q1_M11,Q2_M11,T1_M11,T2_M11,T3_M11,T4_M11,T5_M11,U1_M11,ZSPAN_M11,X2_M11,X0_M11,X1_M11
2021-09-27 06:00:00,,0826.2,5.00,0.00,29.6,26.1,00.0,38.8,31.0,10.7,0003.0,0006.50,0016.04,0005.42
2021-09-27 06:01:00,,0826.2,4.99,0.00,29.6,26.4,00.0,38.8,31.0,10.7,0002.4,0006.49,0015.79,0005.42
2021-09-27 06:02:00,,0826.2,5.01,0.00,29.5,26.8,00.0,38.7,31.0,10.7,0002.7,0006.49,0015.58,0005.40
2021-09-27 06:03:00,,0826.3,4.99,0.00,29.5,27.2,00.0,38.7,31.0,10.7,0002.6,0006.47,0015.69,0005.38
2021-09-27 06:04:00,,0826.3,5.01,0.00,29.5,27.5,00.0,38.7,31.1,10.7,0002.5,0006.44,0015.66,0005.38
2021-09-27 06:05:00,,0826.3,5.01,0.00,29.5,27.8,00.0,38.7,31.2,10.7,0002.7,0006.38,0015.53,0005.38
2021-09-27 06:06:00,,0826.2,5.00,0.00,29.5,28.0,00.0,38.7,31.2,10.7,0002.9,0006.36,0015.88,0005.38
2021-09-27 06:07:00,,0826.2,4.99,0.00,29.5,28.1,00.0,38.7,31.3,10.7,0003.2,0006.36,0016.18,0005.38
2021-09-27 06:08:00,,0826.2,5.00,0.00,29.6,28.3,00.0,38.7,31.3,10.7,0003.3,0006.32,0015.90,0005.38
2021-09-27 06:09:00,,0826.3,5.01,0.00,29.6,28.4,00.0,38.7,31.3,10.8,0003.4,0006.32,0015.51,0005.39
2021-09-27 06:10:00,,0826.2,5.00,0.00,29.6,28.4,00.0,38.7,31.4,10.7,0003.3,0006.33,0015.04,0005.39
2021-09-27 06:11:00,,0826.2,4.99,0.00,29.6,28.5,00.0,38.7,31.4,10.7,0003.3,0006.34,0014.36,0005.39
2021-09-27 06:12:00,,0826.2,5.00,0.00,29.7,28.6,00.0,38.7,31.4,10.6,0003.5,0006.36,0014.55,0005.40
2021-09-27 06:13:00,,0826.2,5.02,0.00,29.7,28.6,00.0,38.7,31.5,10.6,0003.3,0006.34,0014.85,0005.41
2021-09-27 06:14:00,,0826.4,4.99,0.00,29.7,28.7,00.0,38.7,31.5,10.6,0003.4,0006.32,0014.85,0005.40
2021-09-27 06:15:00,,0826.2,5.00,0.00,29.8,28.7,00.0,38.7,31.5,10.6,0003.4,0006.31,0015.09,0005.39
2021-09-27 06:16:00,,0826.2,5.01,0.00,29.8,28.7,00.0,38.8,31.5,10.5,0003.3,0006.29,0015.43,0005.38
2021-09-27 06:17:00,,0826.2,5.00,0.00,29.8,28.8,00.0,38.8,31.6,10.4,0003.0,0006.23,0015.00,0005.36
2021-09-27 06:18:00,,0826.4,5.01,0.00,29.8,28.8,00.0,38.8,31.6,10.4,0002.6,0006.17,0014.57,0005.33
2021-09-27 06:19:00,,0826.2,5.00,0.00,29.9,28.8,00.0,38.8,31.6,10.4,0001.9,0006.18,0014.66,0005.32
2021-09-27 06:20:00,,0826.2,5.01,0.00,29.9,28.9,00.0,38.8,31.7,10.4,0001.0,0006.19,0014.47,0005.31
2021-09-27 06:21:00,,0826.2,4.98,0.00,29.9,28.9,00.0,38.9,31.7,10.4,0001.0,0006.16,0014.06,0005.31
2021-09-27 06:22:00,,0826.3,5.00,0.00,29.9,28.9,00.0,38.9,31.7,10.5,0000.5,0006.14,0013.54,0005.30
2021-09-27 06:23:00,,0826.2,5.01,0.00,30.0,28.7,00.0,38.9,31.7,10.6,0001.0,0006.12,0012.97,0005.29
2021-09-27 06:24:00,,0826.2,4.99,0.00,29.8,26.8,00.0,38.9,31.1,10.6,0001.3,0006.17,0012.87,0005.29
2021-09-27 06:25:00,,0826.2,5.00,0.00,29.7,26.1,00.0,38.9,30.9,10.6,0000.5,0006.19,0012.85,0005.28
2021-09-27 06:26:00,,0826.2,5.00,0.00,29.6,26.3,00.0,38.8,31.0,10.7,0000.2,0006.19,0012.00,0005.28
2021-09-27 06:27:00,,0826.2,4.99,0.00,29.5,26.7,00.0,38.8,31.0,10.8,0000.6,0006.13,0011.14,0005.27
2021-09-27 06:28:00,,0826.2,5.00,0.00,29.5,27.1,00.0,38.7,31.1,10.8,0000.9,0006.12,0011.28,0005.27
2021-09-27 06:29:00,,0826.2,5.01,0.00,29.5,27.5,00.0,38.7,31.1,10.7,0001.0,0006.15,0011.12,0005.28
2021-09-27 06:30:00,,0826.2,5.00,0.00,29.5,27.7,00.0,38.7,31.2,10.7,0001.5,0006.16,0011.28,0005.29
2021-09-27 06:31:00,,0826.2,5.00,0.00,29.5,28.0,00.0,38.7,31.3,10.7,0002.2,0006.18,0011.27,0005.28
2021-09-27 06:32:00,,0826.3,5.01,0.00,29.6,28.1,00.0,38.7,31.3,10.6,0002.2,0006.17,0011.56,0005.27
2021-09-27 06:33:00,,0826.2,4.99,0.00,29.6,28.2,00.0,38.7,31.3,10.6,0002.3,0006.16,0012.09,0005.26
2021-09-27 06:34:00,,0826.2,5.00,0.00,29.6,28.3,00.0,38.7,31.4,10.6,0002.6,0006.15,0012.16,0005.26
2021-09-27 06:35:00,,0826.2,5.01,0.00,29.7,28.4,00.0,38.7,31.4,10.5,0002.9,0006.13,0011.83,0005.26
2021-09-27 06:36:00,,0826.2,4.99,0.00,29.7,28.5,00.0,38.7,31.4,10.5,0003.2,0006.06,0011.83,0005.24
2021-09-27 06:37:00,,0826.2,5.00,0.00,29.7,28.6,00.0,38.7,31.5,10.5,0003.7,0006.04,0012.15,0005.24
2021-09-27 06:38:00,,0826.2,5.01,0.00,29.7,28.7,00.0,38.7,31.5,10.5,0003.9,0006.10,0012.27,0005.24
2021-09-27 06:39:00,,0826.2,5.00,0.00,29.8,28.7,00.0,38.7,31.5,10.5,0004.0,0006.13,0012.75,0005.23
2021-09-27 06:40:00,,0826.2,4.99,0.00,29.8,28.8,00.0,38.8,31.5,10.5,0004.2,0006.13,0013.67,0005.24
2021-09-27 06:41:00,,0826.2,5.00,0.00,29.8,28.8,00.0,38.8,31.6,10.4,0003.8,0006.11,0014.50,0005.23
2021-09-27 06:42:00,,0826.3,5.01,0.00,29.8,28.8,00.0,38.8,31.6,10.5,0003.3,0006.07,0014.63,0005.22
2021-09-27 06:43:00,,0826.2,5.00,0.00,29.9,28.9,00.0,38.8,31.7,10.5,0003.2,0006.08,0014.95,0005.23
2021-09-27 06:44:00,,0826.4,4.99,0.00,29.9,28.9,00.0,38.8,31.7,10.4,0003.4,0006.06,0014.51,0005.22
2021-09-27 06:45:00,,0826.3,5.00,0.00,29.9,28.9,00.0,38.9,31.7,10.4,0002.8,0006.04,0014.39,0005.21
2021-09-27 06:46:00,,0826.2,5.00,0.00,29.9,29.0,00.0,38.9,31.7,10.4,0002.3,0006.05,0014.58,0005.20
2021-09-27 06:47:00,,0826.2,5.02,0.00,30.0,29.0,00.0,38.9,31.8,10.4,0002.4,0006.09,0014.55,0005.20
2021-09-27 06:48:00,,0826.3,4.99,0.00,30.0,29.0,00.0,38.9,31.8,10.4,0002.1,0006.13,0014.67,0005.21
2021-09-27 06:49:00,,0826.2,5.00,0.00,30.0,29.0,00.0,38.9,31.8,10.4,0001.8,0006.13,0014.83,0005.21
2021-09-27 06:50:00,,0826.2,4.99,0.00,30.0,29.0,00.0,39.0,31.8,10.4,0001.9,0006.10,0014.75,0005.21
2021-09-27 06:51:00,,0826.3,5.01,0.00,30.0,28.5,00.0,39.0,31.6,10.3,0001.8,0006.10,0014.22,0005.22
2021-09-27 06:52:00,,0826.2,5.00,0.00,29.9,26.5,00.0,38.9,31.1,10.4,0001.9,0006.11,0013.28,0005.24
2021-09-27 06:53:00,,0826.2,5.00,0.00,29.7,26.2,00.0,38.9,31.0,10.5,0002.2,0006.13,0013.95,0005.24
2021-09-27 06:54:00,,0826.2,5.00,0.00,29.7,26.5,00.0,38.9,31.1,10.6,0002.3,0006.15,0013.82,0005.25
2021-09-27 06:55:00,,0826.2,5.00,0.00,29.6,26.9,00.0,38.8,31.1,10.6,0002.4,0006.19,0014.15,0005.25
2021-09-27 06:56:00,,0826.2,4.99,0.00,29.6,27.3,00.0,38.8,31.2,10.7,0003.2,0006.22,0014.90,0005.26
2021-09-27 06:57:00,,0826.2,5.01,0.00,29.6,27.6,00.0,38.8,31.2,10.6,0003.4,0006.24,0015.12,0005.26
2021-09-27 06:58:00,,0826.2,5.01,0.00,29.6,27.9,00.0,38.8,31.2,10.6,0003.4,0006.27,0015.17,0005.27
2021-09-27 06:59:00,,0826.2,5.01,0.00,29.6,28.0,00.0,38.8,31.3,10.6,0003.5,0006.23,0014.86,0005.28
